Flag for U.S.A. Weather past 2 weeks in Tampa, Florida, U.S.A.

Now
75 °F

Sunny.


Feels Like: 77 °F
Forecast: 52 / 75 °F
Wind: 7 mph from South

Location: Tampa International Airport

Current Time: Feb 1, 2015 at 5:03:16 PM

Latest Report: Feb 1, 2015 at 3:53 PM


Visibility: 10 mi

Pressure: 30.07 "Hg

Humidity: 40%

Dew point: 49 °F

Location of TampaLocation

Historic Weather in Tampa — Graph

°F

Tampa temperature yesterday

Maximum temperature yesterday: 72 °F (at 2:53 PM)
Minimum temperature yesterday: 47 °F (at 5:53 AM)
Average temperature yesterday: 60 °F

Past Weeks' High & Low Weather Summary

 TemperatureHumidityPressure
High80 °F (Jan 22, 2:53 PM)93% (Jan 18, 12:53 AM)30.34 "Hg (Jan 18, 12:53 AM)
Low45 °F (Jan 29, 4:53 AM)23% (Jan 19, 2:53 PM)29.83 "Hg (Jan 24, 4:53 AM)
Average61 °F68%30.10 "Hg
* Reported Jan 17 2:53 PM — Feb 1 2:53 PM, Tampa, Weather by CustomWeather, © 2014

Note: Actual official high and low records may vary slightly from our data, if they occured in-between our weather recording intervals... More about our weather records

Advertising

Tampa weather history for previous 24 hours

 ConditionsComfort  
Time TempWeatherWind HumidityBarometerVisibility
2:53 PM
Feb 1
75 °FPassing clouds.8 mph39%30.08 "Hg10 mi
1:53 PM74 °FPassing clouds.10 mph40%30.11 "Hg10 mi
12:53 PM72 °FPassing clouds.14 mph46%30.16 "Hg10 mi
11:53 AM71 °FPassing clouds.13 mph47%30.21 "Hg10 mi
10:53 AM69 °FPassing clouds.12 mph51%30.23 "Hg10 mi
9:53 AM66 °FPassing clouds.8 mph56%30.24 "Hg10 mi
8:53 AM61 °FPassing clouds.6 mph65%30.24 "Hg10 mi
7:53 AM56 °FPassing clouds.No wind75%30.24 "Hg10 mi
6:53 AM56 °FPassing clouds.3 mph75%30.22 "Hg10 mi
5:53 AM56 °FPassing clouds.7 mph72%30.21 "Hg10 mi
4:53 AM56 °FPassing clouds.3 mph72%30.22 "Hg10 mi
3:53 AM57 °FPassing clouds.3 mph69%30.22 "Hg10 mi
2:53 AM58 °FPassing clouds.6 mph67%30.22 "Hg10 mi
1:53 AM58 °FPassing clouds.5 mph67%30.24 "Hg10 mi
12:53 AM59 °FPassing clouds.9 mph64%30.24 "Hg10 mi
11:53 PM
Jan 31
59 °FPassing clouds.8 mph64%30.25 "Hg10 mi
10:53 PM60 °FPassing clouds.6 mph62%30.26 "Hg10 mi
9:53 PM62 °FPassing clouds.7 mph58%30.26 "Hg10 mi
8:53 PM63 °FPassing clouds.7 mph54%30.25 "Hg10 mi
7:53 PM65 °FPassing clouds.7 mph51%30.25 "Hg10 mi
6:53 PM67 °FPassing clouds.5 mph45%30.24 "Hg10 mi
5:53 PM70 °FPartly sunny.6 mph39%30.23 "Hg10 mi
Weather by CustomWeather, © 2014

See weather overviewHow to use our weather pages